UAL169 KSAV-KEWR

Flight info

Callsign UAL169
Flight time 1h 39m
Altitude 37000
Route JROSS Q87 ALWZZ OGRAE Q99 QUART PHLBO4
Aircraft B38M/M-SDE1FGHILORVWXY/HB1

Departure

Time 2026-04-16 22:35
Airport Savannah Hilton Head International Airport (KSAV)

Arrival

Time 2026-04-17 00:14
Airport Newark Liberty International Airport (KEWR)
Time Latitude Longitude Altitude Speed Heading
2026-04-16 21:56 32.13519 -81.20694 39 ft 0 kts
2026-04-16 22:13 32.13510 -81.20694 39 ft 3 kts 358°
2026-04-16 22:13 32.13490 -81.20694 37 ft 3 kts 10°
2026-04-16 22:14 32.13470 -81.20699 36 ft 3 kts 11°
2026-04-16 22:14 32.13451 -81.20703 39 ft 3 kts 10°
2026-04-16 22:14 32.13431 -81.20708 38 ft 3 kts 14°
2026-04-16 22:14 32.13413 -81.20714 38 ft 3 kts 18°
2026-04-16 22:15 32.13409 -81.20716 35 ft 0 kts 12°
2026-04-16 22:18 32.13410 -81.20716 35 ft 0 kts 11°
2026-04-16 22:19 32.13432 -81.20710 38 ft 4 kts 12°
2026-04-16 22:19 32.13448 -81.20682 36 ft 0 kts 85°
2026-04-16 22:24 32.13450 -81.20672 39 ft 5 kts 76°
2026-04-16 22:24 32.13488 -81.20679 39 ft 11 kts 287°
2026-04-16 22:24 32.13454 -81.20772 38 ft 12 kts 241°
2026-04-16 22:24 32.13373 -81.20814 38 ft 11 kts 181°
2026-04-16 22:25 32.13266 -81.20816 40 ft 20 kts 180°
2026-04-16 22:25 32.13133 -81.20818 40 ft 20 kts 180°
2026-04-16 22:25 32.13055 -81.20803 40 ft 15 kts 132°
2026-04-16 22:25 32.13039 -81.20653 43 ft 23 kts 91°
2026-04-16 22:26 32.13037 -81.20488 47 ft 20 kts 90°
2026-04-16 22:26 32.13033 -81.20289 47 ft 22 kts 94°
2026-04-16 22:26 32.13025 -81.20099 49 ft 25 kts 91°
2026-04-16 22:26 32.13023 -81.19875 49 ft 21 kts 91°
2026-04-16 22:27 32.12988 -81.19669 47 ft 30 kts 106°
2026-04-16 22:27 32.12964 -81.19462 52 ft 25 kts 91°
2026-04-16 22:27 32.12962 -81.19226 49 ft 32 kts 90°
2026-04-16 22:27 32.12960 -81.19043 53 ft 23 kts 91°
2026-04-16 22:28 32.12951 -81.18895 57 ft 11 kts 123°
2026-04-16 22:28 32.12932 -81.18880 55 ft 0 kts 159°
2026-04-16 22:33 32.12928 -81.18878 55 ft 2 kts 159°
2026-04-16 22:33 32.12905 -81.18877 51 ft 6 kts 177°
2026-04-16 22:33 32.12855 -81.18912 54 ft 9 kts 243°
2026-04-16 22:34 32.12849 -81.18962 53 ft 0 kts 270°
2026-04-16 22:34 32.12850 -81.19045 54 ft 38 kts 270°
2026-04-16 22:34 32.12855 -81.19708 51 ft 124 kts 270°
2026-04-16 22:34 32.12845 -81.21021 97 ft 190 kts 266°
2026-04-16 22:35 32.12880 -81.22698 873 ft 193 kts 270°
2026-04-16 22:35 32.12939 -81.24168 2298 ft 190 kts 268°
2026-04-16 22:35 32.12993 -81.25776 2377 ft 199 kts 269°
2026-04-16 22:35 32.13061 -81.27457 2491 ft 213 kts 270°
2026-04-16 22:36 32.13117 -81.29273 2595 ft 230 kts 270°
2026-04-16 22:36 32.13164 -81.31194 2686 ft 237 kts 270°
2026-04-16 22:36 32.13206 -81.33152 2784 ft 240 kts 269°
2026-04-16 22:36 32.13375 -81.35115 2873 ft 243 kts 288°
2026-04-16 22:37 32.14393 -81.36669 2954 ft 246 kts 326°
2026-04-16 22:37 32.15444 -81.37157 2964 ft 248 kts 351°
2026-04-16 22:37 32.17132 -81.36846 3017 ft 250 kts 25°
2026-04-16 22:37 32.18579 -81.35705 2996 ft 251 kts 44°
2026-04-16 22:38 32.19728 -81.34145 3003 ft 253 kts 51°
2026-04-16 22:38 32.20845 -81.32547 2978 ft 253 kts 50°
2026-04-16 22:38 32.21972 -81.30959 3243 ft 253 kts 50°
2026-04-16 22:38 32.23109 -81.29372 3494 ft 254 kts 50°
2026-04-16 22:39 32.24255 -81.27776 3824 ft 256 kts 49°
2026-04-16 22:39 32.25417 -81.26182 4163 ft 257 kts 48°
2026-04-16 22:39 32.26587 -81.24580 4507 ft 258 kts 48°
2026-04-16 22:39 32.27761 -81.22964 4879 ft 261 kts 47°
2026-04-16 22:40 32.28950 -81.21334 5232 ft 262 kts 47°
2026-04-16 22:40 32.30141 -81.19696 5812 ft 260 kts 47°
2026-04-16 22:40 32.31346 -81.18039 6716 ft 274 kts 48°
2026-04-16 22:40 32.32638 -81.16278 7380 ft 291 kts 47°
2026-04-16 22:41 32.33978 -81.14454 8289 ft 295 kts 48°
2026-04-16 22:41 32.35327 -81.12599 9279 ft 300 kts 48°
2026-04-16 22:41 32.36695 -81.10711 10200 ft 305 kts 48°
2026-04-16 22:41 32.38118 -81.08760 10757 ft 322 kts 47°
2026-04-16 22:42 32.39602 -81.06740 11307 ft 336 kts 47°
2026-04-16 22:42 32.41150 -81.04624 12058 ft 341 kts 47°
2026-04-16 22:42 32.42699 -81.02480 12920 ft 344 kts 47°
2026-04-16 22:42 32.44263 -81.00310 13712 ft 348 kts 47°
2026-04-16 22:43 32.45841 -80.98115 14416 ft 352 kts 47°
2026-04-16 22:43 32.47461 -80.95859 15105 ft 356 kts 47°
2026-04-16 22:43 32.49052 -80.93640 15775 ft 360 kts 48°
2026-04-16 22:43 32.50685 -80.91363 16426 ft 364 kts 47°
2026-04-16 22:44 32.52330 -80.89066 17072 ft 368 kts 48°
2026-04-16 22:44 32.53994 -80.86742 17707 ft 372 kts 48°
2026-04-16 22:44 32.55675 -80.84392 18326 ft 376 kts 48°
2026-04-16 22:44 32.57399 -80.81981 18881 ft 379 kts 48°
2026-04-16 22:45 32.59085 -80.79620 19416 ft 383 kts 48°
2026-04-16 22:45 32.60815 -80.77194 19966 ft 385 kts 48°
2026-04-16 22:45 32.62550 -80.74760 20496 ft 388 kts 48°
2026-04-16 22:45 32.64304 -80.72299 21017 ft 392 kts 48°
2026-04-16 22:46 32.66070 -80.69816 21545 ft 395 kts 48°
2026-04-16 22:46 32.67846 -80.67320 22053 ft 398 kts 48°
2026-04-16 22:46 32.69643 -80.64794 22565 ft 401 kts 47°
2026-04-16 22:46 32.71711 -80.62598 23030 ft 400 kts 30°
2026-04-16 22:47 32.74164 -80.61020 23504 ft 403 kts 25°
2026-04-16 22:47 32.76668 -80.59479 23910 ft 406 kts 25°
2026-04-16 22:47 32.79187 -80.57953 24333 ft 408 kts 25°
2026-04-16 22:47 32.81736 -80.56426 24736 ft 411 kts 25°
2026-04-16 22:48 32.84304 -80.54895 25137 ft 414 kts 24°
2026-04-16 22:48 32.86894 -80.53353 25535 ft 417 kts 24°
2026-04-16 22:48 32.89497 -80.51804 25928 ft 420 kts 24°
2026-04-16 22:48 32.92115 -80.50245 26313 ft 422 kts 24°
2026-04-16 22:49 32.94751 -80.48674 26692 ft 425 kts 24°
2026-04-16 22:49 32.97409 -80.47089 27062 ft 428 kts 24°
2026-04-16 22:49 33.00078 -80.45497 27435 ft 431 kts 24°
2026-04-16 22:49 33.02770 -80.43890 27794 ft 434 kts 24°
2026-04-16 22:50 33.05438 -80.42296 28145 ft 436 kts 24°
2026-04-16 22:50 33.08201 -80.40644 28501 ft 439 kts 24°
2026-04-16 22:50 33.10901 -80.39029 28849 ft 442 kts 24°
2026-04-16 22:50 33.13660 -80.37377 29200 ft 445 kts 24°
2026-04-16 22:51 33.16436 -80.35714 29546 ft 447 kts 24°
2026-04-16 22:51 33.19225 -80.34041 29895 ft 450 kts 24°
2026-04-16 22:51 33.22027 -80.32360 30211 ft 452 kts 24°
2026-04-16 22:51 33.24851 -80.30664 30491 ft 455 kts 24°
2026-04-16 22:52 33.27681 -80.28964 30795 ft 456 kts 24°
2026-04-16 22:52 33.30521 -80.27256 31090 ft 458 kts 24°
2026-04-16 22:52 33.33375 -80.25539 31378 ft 460 kts 24°
2026-04-16 22:52 33.36243 -80.23812 31660 ft 462 kts 24°
2026-04-16 22:53 33.39124 -80.22075 31943 ft 465 kts 23°
2026-04-16 22:53 33.42017 -80.20330 32231 ft 466 kts 23°
2026-04-16 22:53 33.44919 -80.18579 32516 ft 468 kts 23°
2026-04-16 22:53 33.47831 -80.16820 32785 ft 470 kts 23°
2026-04-16 22:54 33.50761 -80.15049 33066 ft 472 kts 23°
2026-04-16 22:54 33.53703 -80.13269 33345 ft 474 kts 23°
2026-04-16 22:54 33.56649 -80.11486 33686 ft 474 kts 23°
2026-04-16 22:54 33.59595 -80.09702 34031 ft 474 kts 23°
2026-04-16 22:55 33.62536 -80.07919 34351 ft 474 kts 23°
2026-04-16 22:55 33.65472 -80.06137 34670 ft 473 kts 22°
2026-04-16 22:55 33.68403 -80.04358 34986 ft 471 kts 22°
2026-04-16 22:55 33.71322 -80.02584 35340 ft 469 kts 22°
2026-04-16 22:56 33.74229 -80.00817 35674 ft 468 kts 22°
2026-04-16 22:56 33.77128 -79.99052 35979 ft 466 kts 22°
2026-04-16 22:56 33.80020 -79.97291 36268 ft 465 kts 22°
2026-04-16 22:56 33.82905 -79.95533 36536 ft 464 kts 22°
2026-04-16 22:57 33.85786 -79.93776 36807 ft 464 kts 22°
2026-04-16 22:57 33.88660 -79.92022 37025 ft 463 kts 22°
2026-04-16 22:57 33.94401 -79.88514 37031 ft 460 kts 22°
2026-04-16 22:58 34.00070 -79.85045 37019 ft 460 kts 22°
2026-04-16 22:58 34.05777 -79.81547 37020 ft 460 kts 22°
2026-04-16 22:59 34.11478 -79.78048 37020 ft 460 kts 22°
2026-04-16 22:59 34.17183 -79.74541 37019 ft 460 kts 22°
2026-04-16 23:00 34.22885 -79.71030 37018 ft 460 kts 22°
2026-04-16 23:00 34.28585 -79.67516 37018 ft 460 kts 22°
2026-04-16 23:01 34.34278 -79.63999 37018 ft 460 kts 22°
2026-04-16 23:01 34.39980 -79.60473 37018 ft 460 kts 22°
2026-04-16 23:02 34.45676 -79.56944 37008 ft 460 kts 22°
2026-04-16 23:02 34.51332 -79.53435 37010 ft 460 kts 22°
2026-04-16 23:03 34.56995 -79.49779 37007 ft 461 kts 24°
2026-04-16 23:03 34.62614 -79.46017 37000 ft 461 kts 24°
2026-04-16 23:04 34.68235 -79.42273 36990 ft 460 kts 22°
2026-04-16 23:04 34.71188 -79.40941 36988 ft 447 kts
2026-04-16 23:04 34.74237 -79.40240 36997 ft 448 kts
2026-04-16 23:05 34.80372 -79.38846 37008 ft 448 kts
2026-04-16 23:05 34.86519 -79.37521 37002 ft 448 kts
2026-04-16 23:06 34.92664 -79.36209 37000 ft 449 kts
2026-04-16 23:06 34.98823 -79.34893 36976 ft 449 kts
2026-04-16 23:07 35.04978 -79.33577 36978 ft 449 kts
2026-04-16 23:07 35.11100 -79.32265 37005 ft 450 kts
2026-04-16 23:08 35.17306 -79.30934 37012 ft 450 kts
2026-04-16 23:08 35.23436 -79.29616 37009 ft 450 kts
2026-04-16 23:09 35.29613 -79.28286 37010 ft 451 kts
2026-04-16 23:09 35.35791 -79.26954 37008 ft 451 kts
2026-04-16 23:10 35.41978 -79.25619 36995 ft 451 kts
2026-04-16 23:10 35.48170 -79.24280 36993 ft 452 kts
2026-04-16 23:11 35.54364 -79.22938 36993 ft 452 kts
2026-04-16 23:11 35.60564 -79.21593 36993 ft 453 kts
2026-04-16 23:12 35.66769 -79.20245 36996 ft 453 kts
2026-04-16 23:12 35.72932 -79.18806 36978 ft 458 kts 12°
2026-04-16 23:13 35.75867 -79.17177 36980 ft 468 kts 27°
2026-04-16 23:13 35.78588 -79.14925 36987 ft 473 kts 28°
2026-04-16 23:13 35.84022 -79.10313 36985 ft 475 kts 30°
2026-04-16 23:14 35.89424 -79.05624 36972 ft 475 kts 30°
2026-04-16 23:14 35.94829 -79.00909 36975 ft 475 kts 30°
2026-04-16 23:15 36.02929 -78.93826 36966 ft 476 kts 30°
2026-04-16 23:16 36.08338 -78.89088 36984 ft 476 kts 30°
2026-04-16 23:16 36.13747 -78.84339 36977 ft 477 kts 30°
2026-04-16 23:17 36.19162 -78.79578 36986 ft 478 kts 30°
2026-04-16 23:17 36.24543 -78.74838 36980 ft 478 kts 30°
2026-04-16 23:18 36.29975 -78.70046 36974 ft 479 kts 30°
2026-04-16 23:18 36.35408 -78.65243 36973 ft 479 kts 30°
2026-04-16 23:19 36.40836 -78.60437 36977 ft 479 kts 30°
2026-04-16 23:19 36.46362 -78.55821 36973 ft 477 kts 26°
2026-04-16 23:20 36.51999 -78.51446 36970 ft 478 kts 26°
2026-04-16 23:20 36.57621 -78.47027 36959 ft 479 kts 27°
2026-04-16 23:21 36.63218 -78.42617 36952 ft 479 kts 27°
2026-04-16 23:21 36.68855 -78.38167 36942 ft 480 kts 27°
2026-04-16 23:22 36.74503 -78.33700 36950 ft 481 kts 27°
2026-04-16 23:22 36.80157 -78.29221 36947 ft 482 kts 27°
2026-04-16 23:23 36.85817 -78.24729 36944 ft 482 kts 27°
2026-04-16 23:23 36.91486 -78.20222 36957 ft 483 kts 27°
2026-04-16 23:24 36.97157 -78.15709 36927 ft 483 kts 27°
2026-04-16 23:24 37.01874 -78.11960 36920 ft 484 kts 27°
2026-04-16 23:25 37.07563 -78.07432 36916 ft 484 kts 27°
2026-04-16 23:25 37.13248 -78.02899 36916 ft 485 kts 27°
2026-04-16 23:26 37.18914 -77.98372 36912 ft 485 kts 27°
2026-04-16 23:26 37.24611 -77.93813 36922 ft 486 kts 27°
2026-04-16 23:27 37.30320 -77.89235 36921 ft 487 kts 27°
2026-04-16 23:27 37.36033 -77.84646 36920 ft 487 kts 27°
2026-04-16 23:28 37.41747 -77.80048 36916 ft 487 kts 27°
2026-04-16 23:28 37.47463 -77.75439 36914 ft 488 kts 27°
2026-04-16 23:29 37.53147 -77.70854 36916 ft 488 kts 27°
2026-04-16 23:29 37.58872 -77.66235 36917 ft 489 kts 27°
2026-04-16 23:30 37.64595 -77.61609 36906 ft 489 kts 27°
2026-04-16 23:30 37.70324 -77.56969 36903 ft 489 kts 27°
2026-04-16 23:31 37.76063 -77.52314 36899 ft 490 kts 27°
2026-04-16 23:31 37.81798 -77.47652 36899 ft 490 kts 27°
2026-04-16 23:32 37.87500 -77.43010 36894 ft 490 kts 27°
2026-04-16 23:32 37.93236 -77.38331 36899 ft 491 kts 27°
2026-04-16 23:33 37.98976 -77.33642 36961 ft 494 kts 26°
2026-04-16 23:33 38.01889 -77.31261 36839 ft 499 kts 26°
2026-04-16 23:33 38.04820 -77.28864 36864 ft 503 kts 27°
2026-04-16 23:34 38.10724 -77.24027 36854 ft 506 kts 27°
2026-04-16 23:34 38.16634 -77.19176 36860 ft 505 kts 27°
2026-04-16 23:35 38.22532 -77.14325 36862 ft 505 kts 27°
2026-04-16 23:35 38.28432 -77.09448 36860 ft 506 kts 30°
2026-04-16 23:36 38.34057 -77.03989 36851 ft 509 kts 32°
2026-04-16 23:36 38.39702 -76.98564 36857 ft 508 kts 32°
2026-04-16 23:37 38.45319 -76.93176 36854 ft 508 kts 32°
2026-04-16 23:37 38.50956 -76.87759 36852 ft 508 kts 32°
2026-04-16 23:38 38.56592 -76.82331 36844 ft 507 kts 32°
2026-04-16 23:38 38.62226 -76.76896 36839 ft 507 kts 32°
2026-04-16 23:39 38.67856 -76.71453 36838 ft 507 kts 32°
2026-04-16 23:39 38.73479 -76.66005 36583 ft 504 kts 32°
2026-04-16 23:39 38.76255 -76.63297 36157 ft 498 kts 32°
2026-04-16 23:40 38.78989 -76.60628 35732 ft 493 kts 32°
2026-04-16 23:40 38.81710 -76.57968 35230 ft 490 kts 33°
2026-04-16 23:40 38.84411 -76.55326 34719 ft 488 kts 33°
2026-04-16 23:40 38.87103 -76.52691 34228 ft 486 kts 33°
2026-04-16 23:41 38.89786 -76.50062 33730 ft 484 kts 33°
2026-04-16 23:41 38.92454 -76.47445 33185 ft 481 kts 33°
2026-04-16 23:41 38.95079 -76.44868 32697 ft 478 kts 33°
2026-04-16 23:41 38.97714 -76.42278 32220 ft 475 kts 33°
2026-04-16 23:42 39.00327 -76.39707 31748 ft 471 kts 33°
2026-04-16 23:42 39.02899 -76.37109 31268 ft 471 kts 38°
2026-04-16 23:42 39.05301 -76.34249 30778 ft 470 kts 39°
2026-04-16 23:42 39.07707 -76.31420 30305 ft 467 kts 38°
2026-04-16 23:43 39.10106 -76.28627 29847 ft 464 kts 38°
2026-04-16 23:43 39.12505 -76.25847 29349 ft 461 kts 38°
2026-04-16 23:43 39.14881 -76.23094 28883 ft 457 kts 38°
2026-04-16 23:43 39.17233 -76.20369 28455 ft 453 kts 38°
2026-04-16 23:44 39.19569 -76.17659 28036 ft 449 kts 38°
2026-04-16 23:44 39.21883 -76.14974 27616 ft 445 kts 39°
2026-04-16 23:44 39.24173 -76.12312 27203 ft 442 kts 39°
2026-04-16 23:44 39.26443 -76.09669 26820 ft 438 kts 39°
2026-04-16 23:45 39.28655 -76.07069 26485 ft 433 kts 39°
2026-04-16 23:45 39.30865 -76.04471 26206 ft 427 kts 39°
2026-04-16 23:45 39.33049 -76.01901 25898 ft 422 kts 39°
2026-04-16 23:45 39.35214 -75.99353 25592 ft 418 kts 39°
2026-04-16 23:46 39.37367 -75.96817 25288 ft 419 kts 39°
2026-04-16 23:46 39.39514 -75.94286 24986 ft 418 kts 39°
2026-04-16 23:46 39.41658 -75.91755 24676 ft 417 kts 39°
2026-04-16 23:46 39.43794 -75.89233 24387 ft 415 kts 40°
2026-04-16 23:47 39.45923 -75.86715 24087 ft 413 kts 40°
2026-04-16 23:47 39.48048 -75.84201 23785 ft 412 kts 40°
2026-04-16 23:47 39.50156 -75.81705 23492 ft 410 kts 40°
2026-04-16 23:47 39.52255 -75.79216 23153 ft 409 kts 40°
2026-04-16 23:48 39.54349 -75.76732 22835 ft 407 kts 40°
2026-04-16 23:48 39.56435 -75.74256 22538 ft 405 kts 40°
2026-04-16 23:48 39.58508 -75.71793 22245 ft 403 kts 40°
2026-04-16 23:48 39.60571 -75.69339 21958 ft 401 kts 40°
2026-04-16 23:49 39.62623 -75.66896 21669 ft 399 kts 40°
2026-04-16 23:49 39.64665 -75.64464 21383 ft 397 kts 40°
2026-04-16 23:49 39.66698 -75.62042 21098 ft 396 kts 40°
2026-04-16 23:49 39.68712 -75.59624 20768 ft 394 kts 40°
2026-04-16 23:50 39.70718 -75.57212 20492 ft 392 kts 40°
2026-04-16 23:50 39.72713 -75.54811 20222 ft 390 kts 40°
2026-04-16 23:50 39.74700 -75.52418 19942 ft 389 kts 40°
2026-04-16 23:50 39.76681 -75.50031 19665 ft 387 kts 39°
2026-04-16 23:51 39.78628 -75.47682 19386 ft 385 kts 39°
2026-04-16 23:51 39.80586 -75.45319 19105 ft 384 kts 39°
2026-04-16 23:51 39.82543 -75.42955 18823 ft 382 kts 39°
2026-04-16 23:51 39.84483 -75.40609 18547 ft 381 kts 39°
2026-04-16 23:52 39.86420 -75.38265 18274 ft 379 kts 39°
2026-04-16 23:52 39.88347 -75.35932 17983 ft 377 kts 39°
2026-04-16 23:52 39.90262 -75.33609 17692 ft 374 kts 39°
2026-04-16 23:52 39.92153 -75.31316 17410 ft 370 kts 39°
2026-04-16 23:53 39.94033 -75.29035 17141 ft 369 kts 39°
2026-04-16 23:53 39.95918 -75.26745 16872 ft 368 kts 39°
2026-04-16 23:53 39.97837 -75.24412 15860 ft 388 kts 40°
2026-04-16 23:53 39.99798 -75.22023 15455 ft 381 kts 40°
2026-04-16 23:54 40.01716 -75.19687 14946 ft 374 kts 40°
2026-04-16 23:54 40.03613 -75.17373 14308 ft 372 kts 40°
2026-04-16 23:54 40.05474 -75.15103 13664 ft 372 kts 40°
2026-04-16 23:54 40.07391 -75.12763 12859 ft 382 kts 40°
2026-04-16 23:55 40.09355 -75.10362 12102 ft 390 kts 40°
2026-04-16 23:55 40.11345 -75.07929 11381 ft 395 kts 40°
2026-04-16 23:55 40.13341 -75.05485 10900 ft 386 kts 41°
2026-04-16 23:55 40.15254 -75.03141 10560 ft 368 kts 40°
2026-04-16 23:56 40.17089 -75.00891 10252 ft 357 kts 41°
2026-04-16 23:56 40.18885 -74.98689 9929 ft 349 kts 40°
2026-04-16 23:56 40.20621 -74.96555 9612 ft 335 kts 40°
2026-04-16 23:56 40.22289 -74.94506 9295 ft 324 kts 40°
2026-04-16 23:57 40.23928 -74.92491 8993 ft 321 kts 40°
2026-04-16 23:57 40.25529 -74.90476 8693 ft 319 kts 44°
2026-04-16 23:57 40.27040 -74.88372 8376 ft 316 kts 44°
2026-04-16 23:57 40.28542 -74.86287 8105 ft 313 kts 44°
2026-04-16 23:58 40.30003 -74.84227 7965 ft 304 kts 45°
2026-04-16 23:58 40.31421 -74.82231 7850 ft 297 kts 44°
2026-04-16 23:58 40.32828 -74.80252 7738 ft 297 kts 45°
2026-04-16 23:58 40.34238 -74.78270 7644 ft 297 kts 44°
2026-04-16 23:59 40.35647 -74.76287 7523 ft 296 kts 45°
2026-04-16 23:59 40.37049 -74.74315 7499 ft 295 kts 44°
2026-04-16 23:59 40.38432 -74.72366 7470 ft 296 kts 44°
2026-04-16 23:59 40.39834 -74.70392 7390 ft 296 kts 44°
2026-04-17 00:00 40.41238 -74.68423 7255 ft 294 kts 41°
2026-04-17 00:00 40.42907 -74.66987 7126 ft 283 kts 14°
2026-04-17 00:00 40.44801 -74.66370 7015 ft 281 kts
2026-04-17 00:00 40.46716 -74.65819 6878 ft 282 kts
2026-04-17 00:01 40.48637 -74.65281 6641 ft 282 kts
2026-04-17 00:01 40.50554 -74.64754 6398 ft 281 kts
2026-04-17 00:01 40.52465 -74.64236 6151 ft 280 kts
2026-04-17 00:01 40.54364 -74.63724 5973 ft 277 kts
2026-04-17 00:02 40.56247 -74.63219 5954 ft 277 kts
2026-04-17 00:02 40.58137 -74.62713 5955 ft 277 kts
2026-04-17 00:02 40.60028 -74.62206 5790 ft 278 kts
2026-04-17 00:02 40.61864 -74.61391 5620 ft 281 kts 23°
2026-04-17 00:03 40.63572 -74.60128 5434 ft 282 kts 27°
2026-04-17 00:03 40.65261 -74.58810 5240 ft 282 kts 28°
2026-04-17 00:03 40.66951 -74.57497 5058 ft 283 kts 27°
2026-04-17 00:03 40.68646 -74.56182 4884 ft 282 kts 28°
2026-04-17 00:04 40.70336 -74.54868 4704 ft 282 kts 29°
2026-04-17 00:04 40.71979 -74.53451 4530 ft 283 kts 32°
2026-04-17 00:04 40.73614 -74.51994 4353 ft 283 kts 32°
2026-04-17 00:04 40.75251 -74.50550 4167 ft 283 kts 31°
2026-04-17 00:05 40.76877 -74.49104 4008 ft 281 kts 32°
2026-04-17 00:05 40.78506 -74.47666 3975 ft 281 kts 32°
2026-04-17 00:05 40.80130 -74.46231 3981 ft 281 kts 31°
2026-04-17 00:05 40.81756 -74.44783 3980 ft 282 kts 32°
2026-04-17 00:06 40.83382 -74.43343 3943 ft 281 kts 32°
2026-04-17 00:06 40.84975 -74.41842 3829 ft 282 kts 40°
2026-04-17 00:06 40.86226 -74.39862 3714 ft 282 kts 57°
2026-04-17 00:06 40.87248 -74.37648 3605 ft 282 kts 59°
2026-04-17 00:07 40.88237 -74.35454 3505 ft 273 kts 59°
2026-04-17 00:07 40.89190 -74.33326 3402 ft 267 kts 59°
2026-04-17 00:07 40.90131 -74.31227 3293 ft 265 kts 59°
2026-04-17 00:07 40.91063 -74.29154 3198 ft 265 kts 59°
2026-04-17 00:08 40.91963 -74.27028 3077 ft 265 kts 68°
2026-04-17 00:08 40.92491 -74.24720 2987 ft 261 kts 85°
2026-04-17 00:08 40.92499 -74.22344 2971 ft 256 kts 101°
2026-04-17 00:08 40.92148 -74.20044 2993 ft 255 kts 111°
2026-04-17 00:09 40.91477 -74.17896 2971 ft 252 kts 121°
2026-04-17 00:09 40.90667 -74.15848 2962 ft 251 kts 125°
2026-04-17 00:09 40.89718 -74.13926 2974 ft 249 kts 129°
2026-04-17 00:09 40.88717 -74.12083 2958 ft 241 kts 136°
2026-04-17 00:10 40.87517 -74.10696 2969 ft 231 kts 150°
2026-04-17 00:10 40.86189 -74.09506 2935 ft 229 kts 153°
2026-04-17 00:10 40.84784 -74.08581 2778 ft 223 kts 165°
2026-04-17 00:10 40.83316 -74.07921 2523 ft 223 kts 167°
2026-04-17 00:11 40.81817 -74.07555 2237 ft 216 kts 187°
2026-04-17 00:11 40.80409 -74.08066 2004 ft 207 kts 212°
2026-04-17 00:11 40.79364 -74.09258 1970 ft 194 kts 229°
2026-04-17 00:11 40.78437 -74.10453 1809 ft 183 kts 219°
2026-04-17 00:12 40.77379 -74.11337 1557 ft 172 kts 210°
2026-04-17 00:12 40.76359 -74.11959 1433 ft 156 kts 207°
2026-04-17 00:12 40.75403 -74.12556 1201 ft 147 kts 208°
2026-04-17 00:12 40.74502 -74.13130 992 ft 143 kts 207°
2026-04-17 00:13 40.73594 -74.13711 821 ft 147 kts 205°
2026-04-17 00:13 40.72972 -74.14110 701 ft 149 kts 206°
2026-04-17 00:13 40.72025 -74.14714 536 ft 153 kts 205°
2026-04-17 00:13 40.71059 -74.15333 362 ft 154 kts 204°
2026-04-17 00:14 40.70100 -74.15936 93 ft 153 kts 203°
2026-04-17 00:14 40.69199 -74.16502 27 ft 123 kts 206°
2026-04-17 00:14 40.68734 -74.16799 20 ft 58 kts 205°
2026-04-17 00:14 40.68547 -74.16974 22 ft 28 kts 233°
2026-04-17 00:15 40.68469 -74.17128 28 ft 19 kts 237°
2026-04-17 00:15 40.68437 -74.17191 26 ft 6 kts 237°
2026-04-17 00:15 40.68442 -74.17244 26 ft 8 kts 296°
2026-04-17 00:15 40.68477 -74.17338 27 ft 15 kts 296°
2026-04-17 00:16 40.68513 -74.17433 25 ft 10 kts 297°
2026-04-17 00:16 40.68572 -74.17497 26 ft 13 kts 311°
2026-04-17 00:16 40.68607 -74.17584 25 ft 12 kts 296°
2026-04-17 00:16 40.68650 -74.17702 23 ft 14 kts 295°
2026-04-17 00:17 40.68694 -74.17765 24 ft 4 kts
2026-04-17 00:17 40.68724 -74.17745 23 ft 1 kts 32°
2026-04-17 00:17 40.68739 -74.17733 25 ft 0 kts 30°